TITAN 3A TRANSTAGE R/B, 1001

Orbit data source: Space-Track

TITAN 3A TRANSTAGE R/B, 1001 is space debris in LEO originally from a launch on Thu, 11 Feb 1965 UTC via a TITAN IIIA launch vehicle from the Air Force Eastern Test Range (AFETR). Debris objects in space refer to the collection of defunct objects orbiting the Earth. Examples of debris include non-operational satellites, rocket bodies, and fragments generated from explosions, collisions, or faulty payload assembly.

Loading next visibility...
Identifier
1001, 1965-008A
Orbit
LEO
Last TLE update
10 hours ago
Origin
Manufacturer
Martin Marietta
Mission
Spacecraft
Bus & Motor
TRUSS, Unknown motor
Mass
336 kg wet, 336 kg dry
Launch date (UTC)
1965-02-11 (60 years ago)
Launch vehicle
TITAN IIIA
Launch site
Air Force Eastern Test Range (AFETR)
Object type
Payload
Rocket body
Debris
Shape & HBR
Cyl + 2 Nozzle, 3.1 m
Radar Cross Section
8.643 m², Large (>1 m²)

Expand to show TLE details & history

TLE from 10 hours ago
0 TITAN 3A TRANSTAGE R/B
1 01001U 65008A   25128.94399066  .00000005  00000-0 -41947-3 0  9999
2 01001  32.1513 350.6609 0018449 237.5959 122.2754  9.90722504181386
Epoch: 2025-05-08T22:39Z
Definitive object data (Epoch: 2025-05-08T22:39:20.793Z)
Latitude
0.00003°
Longitude
143.81708°
Altitude
2,787.159 km
Speed
6.594 km/s
True Right ascension
23h 22m 38s
True Declination
0° 00' 00"
Sunlit
Object was in daylight at TLE epoch
Visualization TLE readout
Latitude
-12.28783°
Longitude
122.68701°
Altitude
2,782.742 km
Speed
6.597 km/s
Apparent Right ascension
23h 57m 37s
Apparent Declination
-31° 33' 03"
Sunlit
Object is in daylight
Visualization observer readout
Local Sidereal Time
16:19:47
Azimuth
102.708° ESE
Elevation
-37.328°
Doppler factor
1
Orbital elements
Apogee altitude
2,798.829 km
Perigee altitude
2,765.03 km
Semi-major axis
9,160.067 km
Eccentricity
0.0018449
Inclination
32.1513°
RAAN
350.6609°
Arg. of periapsis
237.5959°
True anomaly
122.45393°
Mean anomaly
122.2754°
Eccentric anomaly
122.36468°
Mean motion
2.47568 °/min
BSTAR
-0.00041947
Orbital period
145.41 mins
Loading maneuver chart data...
Loading SW <> Apogee altitude chart data...
Loading historical data...
Loading historical data...
Loading historical data...
Loading historical data...
Loading historical data...
Loading historical data...
Loading historical data...
Other satellites on launch #8 in the year 1965 (1965-02-11 UTC)

TITAN 3A TRANSTAGE R/B Visibility forecast

Observer location: undefined°, undefined°

Span
Click to sort rows by Start time (UTC) header in descending order
Start Az.
Max El. time (UTC)
Max El. Az.
Max El.
End time (UTC)
End Az.
21 mins2025-05-09 15:38:40.129Z183.648° SSW2025-05-09 15:48:40.129Z142.875° SSE20.614°2025-05-09 15:59:40.129Z97.566° ESE
28 mins2025-05-09 18:11:40.129Z225.635° WSW2025-05-09 18:25:40.129Z153.991° SSE37.676°2025-05-09 18:39:40.129Z89.217° E
29 mins2025-05-09 20:48:40.129Z255.774° W2025-05-09 21:02:40.129Z177.946° S42.316°2025-05-09 21:17:40.129Z103.158° ESE
28 mins2025-05-09 23:26:40.129Z268.876° W2025-05-09 23:39:40.129Z203.486° SW37.675°2025-05-09 23:54:40.129Z132.41° SE
19 mins2025-05-10 02:06:40.129Z258.532° W2025-05-10 02:15:40.129Z220.604° SW20.544°2025-05-10 02:25:40.129Z178.457° S
|